TimePDT,TemperatureF,Dew PointF,Humidity,Sea Level PressureIn,VisibilityMPH,Wind Direction,Wind SpeedMPH,Gust SpeedMPH,PrecipitationIn,Events,Conditions,WindDirDegrees,DateUTC
12:15 AM,60.8,55.4,82,30.05,10.0,SSE,9.2,-,0.04,,Overcast,160,2013-09-06 07:15:00
12:35 AM,60.8,55.4,82,30.04,10.0,SSE,8.1,-,0.12,,Overcast,160,2013-09-06 07:35:00
12:55 AM,60.8,55.4,82,30.04,10.0,South,8.1,-,0.19,,Overcast,170,2013-09-06 07:55:00
1:15 AM,60.8,55.4,82,30.03,10.0,SSE,10.4,-,0.08,,Overcast,160,2013-09-06 08:15:00
1:35 AM,59.0,55.4,88,30.04,10.0,SSE,8.1,-,0.14,,Overcast,150,2013-09-06 08:35:00
1:55 AM,59.0,55.4,88,30.05,10.0,ESE,8.1,-,0.18,,Overcast,120,2013-09-06 08:55:00
2:15 AM,59.0,55.4,88,30.05,5.0,SSE,4.6,-,0.15,,Overcast,160,2013-09-06 09:15:00
2:35 AM,59.0,55.4,88,30.04,10.0,South,5.8,-,0.23,,Overcast,170,2013-09-06 09:35:00
2:55 AM,59.0,55.4,88,30.04,10.0,SSE,5.8,-,0.30,,Overcast,150,2013-09-06 09:55:00
3:15 AM,59.0,55.4,88,30.03,10.0,South,8.1,-,0.11,,Overcast,170,2013-09-06 10:15:00
3:35 AM,59.0,55.4,88,30.03,9.0,SSE,8.1,-,0.20,,Overcast,150,2013-09-06 10:35:00
3:55 AM,59.0,55.4,88,30.03,9.0,SSE,8.1,16.1,0.32,,Overcast,150,2013-09-06 10:55:00
4:15 AM,59.0,55.4,88,30.04,9.0,SSE,8.1,-,0.08,,Overcast,150,2013-09-06 11:15:00
4:35 AM,59.0,55.4,88,30.03,10.0,SSE,9.2,-,0.13,,Overcast,150,2013-09-06 11:35:00
4:55 AM,59.0,55.4,88,30.03,9.0,SSE,6.9,-,0.20,,Overcast,150,2013-09-06 11:55:00
5:15 AM,59.0,55.4,88,30.03,10.0,SSE,4.6,-,0.05,,Overcast,160,2013-09-06 12:15:00
5:35 AM,59.0,55.4,88,30.03,10.0,SE,6.9,-,0.09,,Overcast,140,2013-09-06 12:35:00
5:55 AM,59.0,55.4,88,30.03,5.0,SSE,6.9,-,0.17,,Overcast,150,2013-09-06 12:55:00
6:15 AM,60.8,55.4,82,30.04,10.0,SSE,3.5,-,0.06,,Overcast,160,2013-09-06 13:15:00
6:35 AM,60.8,55.4,82,30.05,10.0,SSE,3.5,-,0.07,,Overcast,160,2013-09-06 13:35:00
6:55 AM,60.8,57.2,88,30.06,8.0,SE,3.5,-,0.11,,Overcast,130,2013-09-06 13:55:00
7:15 AM,60.8,57.2,88,30.06,8.0,SSE,4.6,-,0.04,,Overcast,150,2013-09-06 14:15:00
7:35 AM,60.8,57.2,88,30.06,5.0,SE,3.5,-,0.07,,Overcast,130,2013-09-06 14:35:00
7:55 AM,60.8,57.2,88,30.07,8.0,Calm,Calm,-,0.10,,Mostly Cloudy,0,2013-09-06 14:55:00
8:15 AM,60.8,57.2,88,30.08,7.0,SE,3.5,-,0.03,,Overcast,130,2013-09-06 15:15:00
8:35 AM,60.8,57.2,88,30.08,7.0,SE,4.6,-,0.05,,Overcast,140,2013-09-06 15:35:00
8:55 AM,60.8,57.2,88,30.09,7.0,SE,4.6,-,0.06,,Overcast,140,2013-09-06 15:55:00
9:15 AM,60.8,57.2,88,30.10,5.0,Calm,Calm,-,0.02,,Overcast,0,2013-09-06 16:15:00
9:35 AM,60.8,57.2,88,30.10,5.0,Calm,Calm,-,0.05,,Overcast,0,2013-09-06 16:35:00
9:55 AM,60.8,57.2,88,30.10,10.0,SSE,4.6,-,0.05,,Overcast,150,2013-09-06 16:55:00
10:15 AM,62.6,57.2,82,30.11,8.0,Calm,Calm,-,N/A,,Overcast,0,2013-09-06 17:15:00
10:35 AM,62.6,57.2,82,30.12,10.0,Calm,Calm,-,0.01,,Overcast,0,2013-09-06 17:35:00
10:55 AM,62.6,57.2,82,30.12,10.0,SE,3.5,-,0.01,,Overcast,140,2013-09-06 17:55:00
11:15 AM,62.6,57.2,82,30.12,10.0,SSE,8.1,-,N/A,,Overcast,150,2013-09-06 18:15:00
11:35 AM,62.6,59.0,88,30.12,10.0,SSE,6.9,-,N/A,,Overcast,150,2013-09-06 18:35:00
11:55 AM,62.6,59.0,88,30.12,10.0,SSE,8.1,-,N/A,,Overcast,150,2013-09-06 18:55:00
12:15 PM,62.6,57.2,82,30.12,10.0,SSE,6.9,-,N/A,,Overcast,160,2013-09-06 19:15:00
12:35 PM,64.4,59.0,83,30.12,10.0,SSE,5.8,-,N/A,,Overcast,160,2013-09-06 19:35:00
12:55 PM,64.4,59.0,83,30.13,10.0,South,6.9,-,N/A,,Overcast,170,2013-09-06 19:55:00
1:15 PM,64.4,59.0,83,30.13,10.0,SSE,3.5,-,N/A,,Overcast,150,2013-09-06 20:15:00
1:35 PM,64.4,59.0,83,30.14,10.0,South,8.1,-,N/A,,Overcast,170,2013-09-06 20:35:00
1:55 PM,64.4,59.0,83,30.14,10.0,SE,6.9,-,N/A,,Overcast,140,2013-09-06 20:55:00
2:15 PM,64.4,59.0,83,30.14,10.0,SE,6.9,-,N/A,,Overcast,130,2013-09-06 21:15:00
2:35 PM,66.2,59.0,78,30.14,10.0,SSE,5.8,-,N/A,,Overcast,150,2013-09-06 21:35:00
2:55 PM,66.2,59.0,78,30.14,10.0,SSE,4.6,-,N/A,,Overcast,160,2013-09-06 21:55:00
3:15 PM,66.2,59.0,78,30.13,10.0,SSE,6.9,-,N/A,,Overcast,150,2013-09-06 22:15:00
3:35 PM,66.2,60.8,83,30.12,10.0,South,8.1,-,N/A,,Overcast,170,2013-09-06 22:35:00
3:55 PM,68.0,59.0,73,30.13,10.0,South,5.8,-,N/A,,Overcast,170,2013-09-06 22:55:00
4:15 PM,66.2,59.0,78,30.13,10.0,South,4.6,-,N/A,,Overcast,180,2013-09-06 23:15:00
4:35 PM,66.2,59.0,78,30.13,10.0,South,4.6,-,N/A,,Overcast,180,2013-09-06 23:35:00
4:55 PM,66.2,59.0,78,30.13,10.0,South,8.1,-,N/A,,Overcast,170,2013-09-06 23:55:00
5:15 PM,66.2,60.8,83,30.13,5.0,SSE,3.5,-,0.02,,Overcast,150,2013-09-07 00:15:00
5:35 PM,66.2,59.0,78,30.14,10.0,SE,4.6,-,0.02,,Overcast,140,2013-09-07 00:35:00
5:55 PM,66.2,59.0,78,30.14,10.0,SSE,4.6,-,0.02,,Overcast,160,2013-09-07 00:55:00
6:15 PM,66.2,59.0,78,30.14,10.0,SE,4.6,-,N/A,,Overcast,140,2013-09-07 01:15:00
6:35 PM,66.2,60.8,83,30.13,10.0,South,5.8,-,N/A,,Overcast,170,2013-09-07 01:35:00
6:55 PM,66.2,59.0,78,30.13,10.0,SSE,3.5,-,N/A,,Overcast,160,2013-09-07 01:55:00
7:15 PM,66.2,60.8,83,30.14,10.0,Calm,Calm,-,N/A,,Overcast,0,2013-09-07 02:15:00
7:35 PM,64.4,60.8,88,30.14,10.0,Calm,Calm,-,N/A,,Overcast,0,2013-09-07 02:35:00
7:55 PM,64.4,59.0,83,30.14,10.0,Calm,Calm,-,N/A,,Overcast,0,2013-09-07 02:55:00
8:15 PM,64.4,60.8,88,30.15,10.0,Calm,Calm,-,N/A,,Overcast,0,2013-09-07 03:15:00
8:35 PM,64.4,60.8,88,30.15,10.0,Calm,Calm,-,N/A,,Overcast,0,2013-09-07 03:35:00
8:55 PM,64.4,60.8,88,30.15,10.0,Calm,Calm,-,N/A,,Overcast,0,2013-09-07 03:55:00
9:15 PM,64.4,59.0,83,30.15,9.0,Calm,Calm,-,N/A,,Overcast,0,2013-09-07 04:15:00
9:35 PM,64.4,60.8,88,30.15,10.0,Calm,Calm,-,N/A,,Overcast,0,2013-09-07 04:35:00
9:55 PM,62.6,59.0,88,30.15,10.0,Calm,Calm,-,N/A,,Overcast,0,2013-09-07 04:55:00
10:15 PM,62.6,59.0,88,30.15,10.0,Calm,Calm,-,N/A,,Overcast,0,2013-09-07 05:15:00
10:35 PM,62.6,59.0,88,30.15,10.0,Calm,Calm,-,N/A,,Overcast,0,2013-09-07 05:35:00
10:55 PM,62.6,59.0,88,30.16,10.0,Calm,Calm,-,N/A,,Overcast,0,2013-09-07 05:55:00
11:15 PM,62.6,59.0,88,30.16,10.0,Calm,Calm,-,N/A,,Overcast,0,2013-09-07 06:15:00
11:35 PM,62.6,59.0,88,30.15,10.0,Calm,Calm,-,N/A,,Overcast,0,2013-09-07 06:35:00
11:55 PM,62.6,59.0,88,30.15,8.0,Calm,Calm,-,N/A,,Mostly Cloudy,0,2013-09-07 06:55:00